When you browse on this site, cookies collect data to enhance your experience and personalize the content and advertising you see.
Visit our Privacy Policy to learn more. By continuing to use the site, you agree to this use of cookies and data.

Hourly Weather Viesite

Today, 4 July, Saturday

Time Temperature Precipitation Wind Pressure Humidity
00:00 +14°C° 0 mm 1 mps 749 mmHg 96%
01:00 +13°C° 0 mm 1 mps 749 mmHg 97%
02:00 +13°C° 0 mm 1 mps 750 mmHg 98%
03:00 +13°C° 0 mm 1 mps 750 mmHg 98%
04:00 +13°C° 0 mm 2 mps 750 mmHg 97%
05:00 +13°C° 0 mm 2 mps 750 mmHg 97%
06:00 +15°C° 0 mm 2 mps 750 mmHg 89%
07:00 +16°C° 0 mm 2 mps 750 mmHg 81%
08:00 +17°C° 0 mm 2 mps 750 mmHg 72%
09:00 +19°C° 0 mm 3 mps 750 mmHg 66%
10:00 +20°C° 0 mm 3 mps 750 mmHg 60%
11:00 +21°C° 0 mm 4 mps 750 mmHg 54%
12:00 +21°C° 0 mm 4 mps 750 mmHg 54%
13:00 +22°C° 0 mm 4 mps 750 mmHg 55%
14:00 +22°C° 0 mm 4 mps 750 mmHg 55%
15:00 +22°C° 0 mm 4 mps 750 mmHg 59%
16:00 +21°C° 0 mm 4 mps 749 mmHg 64%
17:00 +21°C° 0 mm 3 mps 749 mmHg 69%
18:00 +20°C° 0.1 mm 3 mps 749 mmHg 74%
19:00 +19°C° 0.1 mm 3 mps 749 mmHg 80%
20:00 +19°C° 0.1 mm 2 mps 749 mmHg 86%
21:00 +18°C° 0 mm 2 mps 749 mmHg 87%
22:00 +18°C° 0 mm 2 mps 748 mmHg 88%
23:00 +17°C° 0 mm 2 mps 748 mmHg 88%

Tomorrow, 5 July, Sunday

Time Temperature Precipitation Wind Pressure Humidity
00:00 +18°C° 0 mm 3 mps 748 mmHg 86%
01:00 +18°C° 0 mm 3 mps 748 mmHg 84%
02:00 +18°C° 0 mm 4 mps 748 mmHg 83%
03:00 +18°C° 0.3 mm 3 mps 747 mmHg 86%
04:00 +17°C° 0.3 mm 3 mps 747 mmHg 89%
05:00 +17°C° 0.3 mm 3 mps 746 mmHg 92%
06:00 +17°C° 0.7 mm 4 mps 746 mmHg 94%
07:00 +15°C° 0.7 mm 4 mps 746 mmHg 95%
08:00 +15°C° 0.7 mm 4 mps 746 mmHg 97%
09:00 +17°C° 0.3 mm 4 mps 746 mmHg 96%
10:00 +17°C° 0.3 mm 4 mps 746 mmHg 95%
11:00 +17°C° 0.3 mm 4 mps 746 mmHg 95%
12:00 +18°C° 0.2 mm 4 mps 746 mmHg 92%
13:00 +19°C° 0.2 mm 4 mps 746 mmHg 89%
14:00 +20°C° 0.2 mm 4 mps 745 mmHg 86%
15:00 +21°C° 0.2 mm 5 mps 745 mmHg 82%
16:00 +22°C° 0.2 mm 5 mps 745 mmHg 79%
17:00 +23°C° 0.2 mm 5 mps 745 mmHg 76%
18:00 +22°C° 0.2 mm 4 mps 745 mmHg 81%
19:00 +21°C° 0.2 mm 4 mps 744 mmHg 86%
20:00 +19°C° 0.2 mm 3 mps 744 mmHg 92%
21:00 +19°C° 0.1 mm 4 mps 744 mmHg 93%
22:00 +19°C° 0.1 mm 4 mps 744 mmHg 94%
23:00 +18°C° 0.1 mm 4 mps 744 mmHg 96%

Day after tomorrow, 6 July, Monday

Time Temperature Precipitation Wind Pressure Humidity
00:00 +18°C° 0.2 mm 4 mps 743 mmHg 96%
01:00 +18°C° 0.2 mm 4 mps 743 mmHg 96%
02:00 +18°C° 0.2 mm 4 mps 743 mmHg 96%
03:00 +18°C° 0 mm 4 mps 743 mmHg 96%
04:00 +18°C° 0 mm 4 mps 743 mmHg 96%
05:00 +17°C° 0 mm 4 mps 743 mmHg 95%
06:00 +18°C° 0 mm 4 mps 743 mmHg 92%
07:00 +18°C° 0 mm 4 mps 743 mmHg 89%
08:00 +19°C° 0 mm 4 mps 744 mmHg 86%
09:00 +19°C° 0.3 mm 4 mps 744 mmHg 82%
10:00 +20°C° 0.3 mm 4 mps 744 mmHg 78%
11:00 +21°C° 0.3 mm 4 mps 744 mmHg 74%
12:00 +20°C° 0.3 mm 4 mps 744 mmHg 77%
13:00 +20°C° 0.3 mm 4 mps 743 mmHg 80%
14:00 +19°C° 0.3 mm 4 mps 743 mmHg 84%
15:00 +20°C° 0.3 mm 4 mps 743 mmHg 82%
16:00 +20°C° 0.3 mm 4 mps 744 mmHg 79%
17:00 +20°C° 0.3 mm 4 mps 744 mmHg 77%
18:00 +19°C° 0.1 mm 3 mps 744 mmHg 79%
19:00 +18°C° 0.1 mm 3 mps 744 mmHg 80%
20:00 +17°C° 0.1 mm 2 mps 744 mmHg 81%
21:00 +16°C° 0 mm 2 mps 744 mmHg 84%
22:00 +15°C° 0 mm 2 mps 744 mmHg 88%
23:00 +13°C° 0 mm 2 mps 745 mmHg 91%

7 July, Tuesday

Time Temperature Precipitation Wind Pressure Humidity
00:00 +13°C° 0 mm 2 mps 745 mmHg 91%
01:00 +12°C° 0 mm 2 mps 745 mmHg 90%
02:00 +10°C° 0 mm 2 mps 745 mmHg 90%
03:00 +11°C° 0 mm 3 mps 745 mmHg 90%
04:00 +11°C° 0 mm 3 mps 746 mmHg 89%
05:00 +11°C° 0 mm 3 mps 746 mmHg 89%
06:00 +13°C° 0 mm 3 mps 746 mmHg 82%
07:00 +14°C° 0 mm 3 mps 746 mmHg 76%
08:00 +17°C° 0 mm 4 mps 746 mmHg 69%
09:00 +18°C° 0 mm 4 mps 746 mmHg 66%
10:00 +19°C° 0 mm 4 mps 746 mmHg 62%
11:00 +20°C° 0 mm 4 mps 747 mmHg 58%
12:00 +20°C° 0.1 mm 4 mps 746 mmHg 58%
13:00 +20°C° 0.1 mm 4 mps 746 mmHg 58%
14:00 +20°C° 0.1 mm 4 mps 746 mmHg 58%
15:00 +20°C° 0.1 mm 4 mps 746 mmHg 60%
16:00 +19°C° 0.1 mm 4 mps 746 mmHg 61%
17:00 +19°C° 0.1 mm 4 mps 746 mmHg 63%
18:00 +18°C° 0 mm 3 mps 746 mmHg 67%
19:00 +16°C° 0 mm 3 mps 746 mmHg 71%
20:00 +15°C° 0 mm 2 mps 746 mmHg 75%
21:00 +14°C° 0 mm 2 mps 747 mmHg 80%
22:00 +13°C° 0 mm 2 mps 747 mmHg 85%
23:00 +12°C° 0 mm 2 mps 747 mmHg 90%

8 July, Wednesday

Time Temperature Precipitation Wind Pressure Humidity
00:00 +10°C° 0 mm 2 mps 747 mmHg 92%
01:00 +10°C° 0 mm 2 mps 747 mmHg 95%
02:00 +9°C° 0 mm 2 mps 746 mmHg 97%
03:00 +9°C° 0 mm 2 mps 746 mmHg 96%
04:00 +9°C° 0 mm 2 mps 746 mmHg 96%
05:00 +10°C° 0 mm 2 mps 746 mmHg 95%
06:00 +12°C° 0 mm 2 mps 746 mmHg 88%
07:00 +14°C° 0 mm 2 mps 746 mmHg 81%
08:00 +14°C° 0 mm 3 mps 746 mmHg 73%
09:00 +16°C° 0.2 mm 3 mps 746 mmHg 72%
10:00 +17°C° 0.2 mm 3 mps 746 mmHg 71%
11:00 +18°C° 0.2 mm 4 mps 746 mmHg 69%
12:00 +18°C° 0.6 mm 4 mps 746 mmHg 69%
13:00 +18°C° 0.6 mm 4 mps 746 mmHg 70%
14:00 +18°C° 0.6 mm 4 mps 745 mmHg 70%
15:00 +17°C° 0.3 mm 4 mps 746 mmHg 68%
16:00 +17°C° 0.3 mm 4 mps 746 mmHg 66%
17:00 +17°C° 0.3 mm 4 mps 746 mmHg 65%
18:00 +16°C° 0.3 mm 3 mps 746 mmHg 73%
19:00 +14°C° 0.3 mm 3 mps 746 mmHg 80%
20:00 +13°C° 0.3 mm 2 mps 746 mmHg 88%
21:00 +12°C° 0 mm 2 mps 746 mmHg 91%
22:00 +10°C° 0 mm 2 mps 747 mmHg 94%
23:00 +9°C° 0 mm 2 mps 747 mmHg 96%

9 July, Thursday

Time Temperature Precipitation Wind Pressure Humidity
00:00 +9°C° 0 mm 2 mps 747 mmHg 97%
01:00 +8°C° 0 mm 2 mps 747 mmHg 97%
02:00 +8°C° 0 mm 2 mps 747 mmHg 97%
03:00 +8°C° 0 mm 2 mps 747 mmHg 97%
04:00 +8°C° 0 mm 2 mps 747 mmHg 97%
05:00 +8°C° 0 mm 2 mps 747 mmHg 97%
06:00 +10°C° 0 mm 2 mps 747 mmHg 92%
07:00 +12°C° 0 mm 3 mps 748 mmHg 88%
08:00 +14°C° 0 mm 3 mps 748 mmHg 84%
09:00 +16°C° 0 mm 3 mps 748 mmHg 75%
10:00 +18°C° 0 mm 4 mps 747 mmHg 67%
11:00 +19°C° 0 mm 4 mps 747 mmHg 58%
12:00 +19°C° 0 mm 4 mps 747 mmHg 61%
13:00 +19°C° 0 mm 5 mps 747 mmHg 63%
14:00 +19°C° 0 mm 5 mps 747 mmHg 66%
15:00 +19°C° 0 mm 5 mps 747 mmHg 70%
16:00 +18°C° 0 mm 4 mps 747 mmHg 74%
17:00 +18°C° 0 mm 4 mps 747 mmHg 79%
18:00 +18°C° 0.1 mm 4 mps 746 mmHg 82%
19:00 +17°C° 0.1 mm 4 mps 746 mmHg 85%
20:00 +17°C° 0.1 mm 4 mps 746 mmHg 89%
21:00 +15°C° 0 mm 4 mps 746 mmHg 90%
22:00 +16°C° 0 mm 3 mps 747 mmHg 92%
23:00 +14°C° 0 mm 3 mps 747 mmHg 94%
Show more